Montego Bay, Jamaica

4:09 PM EST on March 29, 2017 (GMT -0500)
Sangster International

Weather History for MKJS - February, 2013

Change the Weather History Date:

Friday, February 22, 2013

  Actual Average Record
Temperature  
Mean Temperature 78 °F -  
Max Temperature 87 °F 82 °F 89 °F (2003)
Min Temperature 70 °F 73 °F 66 °F (2017)
Cooling Degree Days 14    
Growing Degree Days 28 (Base 50)    
Moisture  
Dew Point 70 °F    
Average Humidity 73    
Maximum Humidity 88    
Minimum Humidity 55    
Precipitation  
Precipitation 0.00 in - - ()
Sea Level Pressure  
Sea Level Pressure 29.97 in    
Wind  
Wind Speed 6 mph ()    
Max Wind Speed 21 mph    
Max Gust Speed -    
Visibility 8.3 miles    
Events      
Averages and records for this station are not official NWS values.
T = Trace of Precipitation, MM = Missing Value Source: Averaged Metar Reports

Daily Weather History Graph

Daily Weather History Graph

Search for Another Location

Airport or City:

Trip Planner

Search our weather history database for the weather conditions in past years. The results will help you decide how hot, cold, wet, or windy it might be!

Date:

Astronomy

Feb. 22, 2013 Rise Set
Actual Time 6:35 AM EST 6:15 PM EST
Civil Twilight 6:13 AM EST 6:37 PM EST
Nautical Twilight 5:47 AM EST 7:02 PM EST
Astronomical Twilight 5:22 AM EST 7:28 PM EST
Moon 3:39 PM EST (2/22) 4:01 AM EST (2/22)
Length of Visible Light 12h 24m
Length of Day
11h 40m
Waxing Gibbous, 90% of the Moon is Illuminated
Feb 22
Waxing Gibbous
Feb 25
Full
Mar 4
Last Quarter
Mar 11
New
Mar 19
First Quarter

Hourly Weather History & Observations

Time (EST) Temp. Heat Index Dew Point Humidity Pressure Visibility Wind Dir Wind Speed Gust Speed Precip Events Conditions
12:00 AM 77.0 °F - 69.8 °F 78% 29.98 in 6.2 mi NNE 2.3 mph - N/A   Partly Cloudy
1:00 AM 74 °F - 70 °F 82% 29.96 in 12 mi South 2.3 mph - -   Scattered Clouds
1:00 AM 73.4 °F - 69.8 °F 88% 29.95 in 6.2 mi South 2.3 mph - N/A   Partly Cloudy
2:00 AM 75.2 °F - 69.8 °F 83% 29.95 in 6.2 mi SE 3.5 mph - N/A   Partly Cloudy
3:00 AM 75.2 °F - 68.0 °F 78% 29.92 in 6.2 mi SSE 3.5 mph - N/A   Partly Cloudy
4:00 AM 78 °F - 69 °F 66% 29.93 in 12 mi South 3.5 mph - -   Scattered Clouds
4:00 AM 75.2 °F - 68.0 °F 78% 29.92 in 6.2 mi South 3.5 mph - N/A   Partly Cloudy
5:00 AM 71.6 °F - 68.0 °F 88% 29.95 in 6.2 mi SSW 2.3 mph - N/A   Partly Cloudy
6:00 AM 71.6 °F - 66.2 °F 83% 29.95 in 6.2 mi SE 1.2 mph - N/A   Partly Cloudy
7:00 AM 74 °F - 66 °F 68% 30.00 in 14 mi NNE 1.2 mph - -   Scattered Clouds
7:00 AM 73.4 °F - 66.2 °F 78% 29.98 in 6.2 mi NNE 1.2 mph - N/A   Partly Cloudy
8:00 AM 78.8 °F - 68.0 °F 69% 30.01 in 6.2 mi East 2.3 mph - N/A   Partly Cloudy
9:00 AM 82.4 °F 86.3 °F 69.8 °F 66% 30.01 in 6.2 mi East 11.5 mph - N/A   Partly Cloudy
10:00 AM 83 °F - 70 °F 56% 30.03 in 16 mi East 11.5 mph - -   Scattered Clouds
10:00 AM 84.2 °F 88.4 °F 69.8 °F 62% 30.01 in 6.2 mi East 11.5 mph - N/A   Partly Cloudy
11:00 AM 82.4 °F 87.2 °F 71.6 °F 70% 30.01 in 6.2 mi NE 17.3 mph - N/A   Scattered Clouds
12:00 PM 84.2 °F 90.9 °F 73.4 °F 70% 30.01 in 6.2 mi NE 15.0 mph - N/A   Partly Cloudy
1:00 PM 84 °F - 73 °F 63% 29.98 in 17 mi ENE 17.3 mph - -   Scattered Clouds
1:00 PM 84.2 °F 90.9 °F 73.4 °F 70% 29.98 in 6.2 mi ENE 17.3 mph - N/A   Partly Cloudy
3:00 PM 86.0 °F 91.8 °F 71.6 °F 62% 29.92 in 6.2 mi ENE 19.6 mph - N/A   Partly Cloudy
4:00 PM 85 °F - 71 °F 55% 29.92 in 17 mi ENE 20.7 mph - -   Scattered Clouds
4:00 PM 84.2 °F 89.6 °F 71.6 °F 66% 29.92 in 6.2 mi ENE 20.7 mph - N/A   Partly Cloudy
5:00 PM 84.2 °F 89.6 °F 71.6 °F 66% 29.92 in 6.2 mi ENE 18.4 mph - N/A   Partly Cloudy
6:00 PM 80.6 °F 85.4 °F 73.4 °F 79% 29.92 in 6.2 mi East 12.7 mph - N/A   Partly Cloudy
7:00 PM 80 °F - 73 °F 73% 29.95 in 14 mi East 8.1 mph - -   Scattered Clouds
7:00 PM 78.8 °F - 73.4 °F 83% 29.95 in 6.2 mi East 8.1 mph - N/A   Partly Cloudy
8:00 PM 78.8 °F - 71.6 °F 78% 29.95 in 6.2 mi SE 5.8 mph - N/A   Partly Cloudy
9:00 PM 78.8 °F - 71.6 °F 78% 29.98 in 6.2 mi South 5.8 mph - N/A   Partly Cloudy
10:00 PM 79 °F - 72 °F 72% 30.01 in 12 mi East 4.6 mph - -   Scattered Clouds
10:00 PM 78.8 °F - 71.6 °F 78% 30.01 in 6.2 mi East 4.6 mph - N/A   Partly Cloudy
11:00 PM 78.8 °F - 71.6 °F 78% 30.01 in 6.2 mi SE 3.5 mph - N/A   Partly Cloudy